Location: Kaseke
(18.0171°S, 31.0526°E)
Time: 12:23:17
(UTC+00:00)

Cosmos 1470 - Pass Details

Date: 14 July 2020
Orbit: 522 x 541 km, 82.5° (Epoch: 07 August)

Event Time Altitude Azimuth Distance (km) Brightness Sun altitude
Exits shadow 03:11:00 - 182° (S) 1,896 5.4 -17.9°
Reaches altitude 10° 03:11:18 10° 182° (S) 1,776 5.2 -17.9°
Maximum altitude 03:15:12 81° 95° (E) 536 2.8 -17.0°
Drops below altitude 10° 03:19:02 10° 7° (N) 1,751 5.7 -16.1°
Sets 03:21:09 0° 6° (N) 2,632 6.6 -15.6°
